Hourly Data Report for August 11, 2020

OTTAWA INTL A
ONTARIO
Current Station Operator: NAVCAN

45°19'00.000" N
75°40'00.000" W
114.90 m
6106001
71628
YOW

Download Data

Hourly Data (August 2020)
Hourly Data Report for August 11, 2020
TIME
LST
Temp Definition
°C
Dew Point Definition
°C
Rel Hum Definition
%
Precip. Amount Definition
mm

Wind Dir Definition
10's deg

Wind Spd Definition
km/h
Visibility Definition
km
Stn Press Definition
kPa
Hmdx Definition


Wind Chill Definition


Weather Definition


00:00 21.8 20.8 94   18 8 24.1 99.74 30   LegendNANA
01:00 21.5 20.7 95   18 6 24.1 99.71 30   Clear
02:00 21.8 20.7 94   18 9 24.1 99.69 30   LegendNANA
03:00 21.5 20.4 93   21 7 24.1 99.69 29   LegendNANA
04:00 20.9 20.2 96   18 8 24.1 99.70 29   Mainly Clear
05:00 19.7 19.5 98   15 7 8.1 99.71     Fog
06:00 20.9 20.6 99   16 7 8.1 99.72 29   Fog
07:00 23.4 21.4 89   18 7 24.1 99.69 32   Mainly Clear
08:00 25.4 21.2 77   18 12 24.1 99.68 34   LegendNANA
09:00 26.8 21.1 71   18 18 24.1 99.64 35   LegendNANA
10:00 27.1 21.6 71   18 16 24.1 99.63 36   Mostly Cloudy
11:00 29.0 21.6 64   18 18 24.1 99.57 38   LegendNANA
12:00 30.0 21.5 60   17 18 24.1 99.47 39   LegendNANA
13:00 30.4 21.0 57   19 25 24.1 99.39 39   Mostly Cloudy
14:00 29.2 20.2 58   20 22 24.1 99.39 37   LegendNANA
15:00 25.4 22.1 81   25 12 24.1 99.44 35   LegendNANA
16:00 26.9 21.8 73   27 25 24.1 99.45 36   Mostly Cloudy
17:00 22.7 21.2 91   30 22 24.1 99.54 31   Rain Showers
18:00 22.5 21.2 92   27 17 24.1 99.55 31   LegendNANA
19:00 22.3 20.9 92   26 12 24.1 99.60 31   Mostly Cloudy
20:00 20.6 19.9 96   26 10 24.1 99.66 28   LegendNANA
21:00 19.9 19.4 97   23 8 24.1 99.75     LegendNANA
22:00 19.8 19.5 98   21 9 24.1 99.83     Clear
23:00 19.9 19.5 98   21 8 24.1 99.86     LegendNANA

Notes on Data Quality.

Legend

  • E = Estimated
  • M = Missing
  • NA = Not Available*
  • [empty] = Indicates an unobserved value
Date modified: